| time (UTC) | temp F | wind direction | speed knots | gust knots | rain 1hr in | rain 24hr in | rain mn in | humidity % | barometer mb |
| 20260506211825 | 68 | 128 | 2.6 | 4.3 | 0.00 | 0.02 | 0.02 | 80 | 1008.7 |
| 20260506211321 | 68 | 259 | 2.6 | 2.6 | 0.00 | 0.02 | 0.02 | 81 | 1008.6 |
| 20260506210818 | 67 | 280 | 4.3 | 5.2 | 0.00 | 0.02 | 0.02 | 81 | 1008.7 |
| 20260506210315 | 67 | 50 | 2.6 | 4.3 | 0.00 | 0.02 | 0.02 | 81 | 1008.5 |
| 20260506205812 | 68 | 157 | 3.5 | 4.3 | 0.00 | 0.02 | 0.02 | 80 | 1008.4 |
| 20260506205308 | 68 | 205 | 2.6 | 4.3 | 0.00 | 0.02 | 0.02 | 80 | 1008.5 |
| 20260506204805 | 67 | 94 | 2.6 | 4.3 | 0.00 | 0.02 | 0.02 | 81 | 1008.6 |
| 20260506204303 | 68 | 92 | 4.3 | 6.1 | 0.00 | 0.02 | 0.02 | 81 | 1008.5 |
| 20260506203800 | 68 | 96 | 2.6 | 2.6 | 0.00 | 0.02 | 0.02 | 80 | 1008.5 |
| 20260506203257 | 68 | 144 | 3.5 | 5.2 | 0.00 | 0.02 | 0.02 | 79 | 1008.5 |
| 20260506202754 | 69 | 204 | 3.5 | 5.2 | 0.00 | 0.02 | 0.02 | 80 | 1008.3 |
| 20260506202251 | 68 | 130 | 2.6 | 4.3 | 0.00 | 0.02 | 0.02 | 80 | 1008.6 |
| 20260506201747 | 69 | 122 | 3.5 | 4.3 | 0.00 | 0.02 | 0.02 | 79 | 1008.6 |
| 20260506201244 | 69 | 79 | 4.3 | 6.1 | 0.00 | 0.02 | 0.02 | 79 | 1008.6 |
| 20260506200742 | 69 | 82 | 3.5 | 5.2 | 0.00 | 0.02 | 0.02 | 79 | 1008.7 |
| 20260506200238 | 69 | 119 | 2.6 | 5.2 | 0.00 | 0.02 | 0.02 | 79 | 1008.9 |
| 20260506195734 | 68 | 85 | 3.5 | 5.2 | 0.00 | 0.02 | 0.02 | 80 | 1008.9 |
| 20260506195231 | 67 | 116 | 3.5 | 6.1 | 0.00 | 0.02 | 0.02 | 83 | 1008.8 |
| 20260506194728 | 66 | 197 | 1.7 | 2.6 | 0.00 | 0.02 | 0.02 | 85 | 1009.1 |
| 20260506194224 | 66 | 161 | 2.6 | 4.3 | 0.00 | 0.02 | 0.02 | 85 | 1009.2 |
| 20260506193723 | 65 | 118 | 3.5 | 4.3 | 0.00 | 0.02 | 0.02 | 86 | 1009.3 |
| 20260506193219 | 66 | 80 | 5.2 | 7.0 | 0.00 | 0.02 | 0.02 | 85 | 1009.4 |
| 20260506192715 | 65 | 111 | 5.2 | 7.0 | 0.00 | 0.02 | 0.02 | 85 | 1009.3 |
| 20260506192212 | 65 | 170 | 2.6 | 2.6 | 0.00 | 0.02 | 0.02 | 86 | 1009.2 |
| 20260506191709 | 65 | 158 | 5.2 | 7.8 | 0.00 | 0.02 | 0.02 | 86 | 1009.1 |
| 20260506191205 | 64 | 183 | 2.6 | 4.3 | 0.00 | 0.02 | 0.02 | 88 | 1009.3 |
| 20260506190702 | 64 | 125 | 3.5 | 4.3 | 0.00 | 0.02 | 0.02 | 89 | 1009.3 |
| 20260506190153 | 63 | 145 | 3.5 | 4.3 | 0.00 | 0.02 | 0.02 | 91 | 1009.4 |
| 20260506185650 | 62 | 158 | 7.8 | 8.7 | 0.00 | 0.02 | 0.02 | 91 | 1009.7 |
| 20260506185146 | 62 | 215 | 2.6 | 4.3 | 0.00 | 0.02 | 0.02 | 93 | 1009.8 |
| 20260506184644 | 62 | 133 | 3.5 | 5.2 | 0.00 | 0.02 | 0.02 | 93 | 1009.7 |
| 20260506184142 | 63 | 83 | 3.5 | 5.2 | 0.00 | 0.02 | 0.02 | 93 | 1010.0 |
| 20260506183638 | 63 | 310 | 3.5 | 4.3 | 0.00 | 0.02 | 0.02 | 94 | 1010.1 |
| 20260506183134 | 62 | 134 | 5.2 | 6.1 | 0.07 | 0.02 | 0.02 | 94 | 1009.8 |
| 20260506182632 | 62 | 177 | 3.5 | 4.3 | 0.12 | 0.02 | 0.02 | 94 | 1009.8 |
| 20260506182128 | 61 | 154 | 2.6 | 4.3 | 0.05 | 0.01 | 0.01 | 94 | 1009.7 |
| 20260506181626 | 62 | 125 | 1.7 | 2.6 | 0.00 | 0.00 | 0.00 | 93 | 1010.3 |
| 20260506181123 | 62 | 195 | 3.5 | 4.3 | 0.00 | 0.00 | 0.00 | 93 | 1010.2 |
| 20260506180620 | 62 | 86 | 2.6 | 2.6 | 0.00 | 0.00 | 0.00 | 92 | 1010.2 |
| 20260506180116 | 62 | 202 | 2.6 | 4.3 | 0.00 | 0.00 | 0.00 | 91 | 1010.3 |
| 20260506175613 | 63 | 96 | 2.6 | 2.6 | 0.00 | 0.00 | 0.00 | 89 | 1010.3 |
| 20260506175109 | 63 | 111 | 3.5 | 4.3 | 0.00 | 0.00 | 0.00 | 86 | 1010.5 |
| 20260506174608 | 64 | 124 | 2.6 | 4.3 | 0.00 | 0.00 | 0.00 | 85 | 1010.4 |
| 20260506174104 | 65 | 188 | 2.6 | 2.6 | 0.00 | 0.00 | 0.00 | 82 | 1010.5 |
| 20260506173602 | 65 | 110 | 6.1 | 7.8 | 0.00 | 0.00 | 0.00 | 82 | 1010.4 |
| 20260506173058 | 65 | 121 | 3.5 | 5.2 | 0.00 | 0.00 | 0.00 | 82 | 1010.6 |
| 20260506172556 | 65 | 112 | 6.1 | 7.8 | 0.00 | 0.00 | 0.00 | 82 | 1010.3 |
| 20260506172051 | 65 | 32 | 3.5 | 5.2 | 0.00 | 0.00 | 0.00 | 82 | 1010.3 |
| 20260506171549 | 64 | 203 | 5.2 | 7.8 | 0.00 | 0.00 | 0.00 | 83 | 1010.4 |
| 20260506171047 | 65 | 163 | 4.3 | 5.2 | 0.00 | 0.00 | 0.00 | 83 | 1010.5 |
| 20260506170544 | 64 | 104 | 5.2 | 7.0 | 0.00 | 0.00 | 0.00 | 82 | 1010.6 |
| 20260506170041 | 64 | 103 | 2.6 | 5.2 | 0.00 | 0.00 | 0.00 | 83 | 1010.7 |
| 20260506165540 | 64 | 89 | 3.5 | 5.2 | 0.00 | 0.00 | 0.00 | 82 | 1010.7 |
| 20260506165036 | 64 | 241 | 4.3 | 5.2 | 0.00 | 0.00 | 0.00 | 81 | 1010.9 |
| 20260506164533 | 65 | 149 | 4.3 | 6.1 | 0.00 | 0.00 | 0.00 | 81 | 1011.0 |
| 20260506164030 | 65 | 114 | 5.2 | 7.0 | 0.00 | 0.00 | 0.00 | 81 | 1011.1 |
| 20260506163526 | 64 | 89 | 6.1 | 8.7 | 0.00 | 0.00 | 0.00 | 82 | 1011.5 |
| 20260506163022 | 64 | 81 | 6.1 | 6.1 | 0.00 | 0.00 | 0.00 | 82 | 1011.7 |
| 20260506162518 | 64 | 44 | 4.3 | 6.1 | 0.00 | 0.00 | 0.00 | 82 | 1011.6 |
| 20260506162015 | 64 | 97 | 4.3 | 6.1 | 0.00 | 0.00 | 0.00 | 82 | 1011.5 |
| 20260506161513 | 64 | 161 | 3.5 | 4.3 | 0.00 | 0.00 | 0.00 | 83 | 1011.5 |
| 20260506161010 | 64 | 51 | 4.3 | 6.1 | 0.00 | 0.00 | 0.00 | 82 | 1011.5 |
| 20260506160507 | 64 | 281 | 3.5 | 5.2 | 0.00 | 0.00 | 0.00 | 83 | 1011.3 |
| 20260506160005 | 64 | 71 | 6.1 | 7.0 | 0.00 | 0.00 | 0.00 | 83 | 1011.7 |
| 20260506155502 | 64 | 94 | 5.2 | 11.3 | 0.00 | 0.00 | 0.00 | 83 | 1011.7 |
| 20260506153634 | 65 | 134 | 5.2 | 7.0 | 0.00 | 0.00 | 0.00 | 80 | 1011.9 |
| 20260506153131 | 66 | 121 | 5.2 | 7.8 | 0.00 | 0.00 | 0.00 | 80 | 1011.9 |
| 20260506152628 | 66 | 104 | 6.1 | 7.8 | 0.00 | 0.00 | 0.00 | 79 | 1011.6 |
| 20260506152126 | 66 | 81 | 4.3 | 7.0 | 0.00 | 0.00 | 0.00 | 78 | 1011.8 |
| 20260506151625 | 66 | 70 | 3.5 | 6.1 | 0.00 | 0.00 | 0.00 | 78 | 1011.8 |
| 20260506151121 | 66 | 271 | 2.6 | 2.6 | 0.00 | 0.00 | 0.00 | 79 | 1011.7 |
| 20260506150618 | 66 | 130 | 5.2 | 7.0 | 0.00 | 0.00 | 0.00 | 78 | 1011.7 |
| 20260506150115 | 65 | 80 | 3.5 | 5.2 | 0.00 | 0.00 | 0.00 | 80 | 1011.8 |
| 20260506145612 | 65 | 240 | 3.5 | 5.2 | 0.00 | 0.00 | 0.00 | 81 | 1012.0 |
| 20260506145109 | 66 | 149 | 4.3 | 5.2 | 0.00 | 0.00 | 0.00 | 80 | 1011.8 |
| 20260506144606 | 66 | 242 | 2.6 | 2.6 | 0.00 | 0.00 | 0.00 | 79 | 1012.0 |
| 20260506144102 | 66 | 97 | 4.3 | 6.1 | 0.00 | 0.00 | 0.00 | 79 | 1011.9 |
| 20260506143600 | 67 | 137 | 4.3 | 6.1 | 0.00 | 0.00 | 0.00 | 78 | 1012.2 |
| 20260506143058 | 67 | 155 | 5.2 | 6.1 | 0.00 | 0.00 | 0.00 | 77 | 1012.1 |
| 20260506142556 | 67 | 202 | 4.3 | 7.0 | 0.00 | 0.00 | 0.00 | 77 | 1011.9 |
| 20260506142054 | 67 | 133 | 4.3 | 5.2 | 0.00 | 0.00 | 0.00 | 78 | 1012.1 |
| 20260506141551 | 66 | 116 | 5.2 | 6.1 | 0.00 | 0.00 | 0.00 | 78 | 1012.0 |
| 20260506141049 | 66 | 136 | 2.6 | 5.2 | 0.00 | 0.00 | 0.00 | 80 | 1012.0 |
| 20260506140547 | 65 | 125 | 2.6 | 5.2 | 0.00 | 0.00 | 0.00 | 80 | 1012.2 |
| 20260506140044 | 65 | 315 | 4.3 | 6.1 | 0.00 | 0.00 | 0.00 | 82 | 1011.9 |
| 20260506135541 | 64 | 96 | 3.5 | 5.2 | 0.00 | 0.00 | 0.00 | 82 | 1012.1 |
| 20260506135037 | 64 | 136 | 3.5 | 4.3 | 0.00 | 0.00 | 0.00 | 83 | 1012.2 |
| 20260506134533 | 64 | 248 | 1.7 | 2.6 | 0.00 | 0.00 | 0.00 | 83 | 1012.2 |
| 20260506134029 | 65 | 107 | 6.1 | 7.8 | 0.00 | 0.00 | 0.00 | 81 | 1012.3 |
| 20260506133527 | 64 | 116 | 4.3 | 6.1 | 0.00 | 0.00 | 0.00 | 82 | 1012.2 |
| 20260506133024 | 64 | 174 | 2.6 | 2.6 | 0.00 | 0.00 | 0.00 | 82 | 1012.4 |
| 20260506132521 | 65 | 144 | 2.6 | 4.3 | 0.00 | 0.00 | 0.00 | 81 | 1012.4 |
| 20260506132018 | 65 | 260 | 2.6 | 2.6 | 0.00 | 0.00 | 0.00 | 81 | 1012.4 |
| 20260506131515 | 65 | 158 | 2.6 | 2.6 | 0.00 | 0.00 | 0.00 | 81 | 1012.5 |
| 20260506131011 | 65 | 341 | 4.3 | 5.2 | 0.00 | 0.00 | 0.00 | 80 | 1012.4 |
| 20260506130508 | 65 | 182 | 2.6 | 4.3 | 0.00 | 0.00 | 0.00 | 81 | 1012.5 |
| 20260506130006 | 65 | 172 | 3.5 | 5.2 | 0.00 | 0.00 | 0.00 | 81 | 1012.5 |
| 20260506125504 | 65 | 255 | 2.6 | 4.3 | 0.00 | 0.00 | 0.00 | 81 | 1012.5 |
| 20260506125001 | 64 | 129 | 4.3 | 5.2 | 0.00 | 0.00 | 0.00 | 82 | 1012.6 |
| 20260506124459 | 64 | 133 | 3.5 | 5.2 | 0.00 | 0.00 | 0.00 | 82 | 1012.6 |
| 20260506123957 | 63 | 73 | 5.2 | 7.0 | 0.00 | 0.00 | 0.00 | 83 | 1012.5 |
| 20260506123454 | 63 | 89 | 4.3 | 4.3 | 0.00 | 0.00 | 0.00 | 83 | 1012.6 |
| 20260506122952 | 63 | 133 | 4.3 | 6.1 | 0.00 | 0.00 | 0.00 | 84 | 1012.4 |
| 20260506122449 | 63 | 24 | 4.3 | 6.1 | 0.00 | 0.00 | 0.00 | 83 | 1012.5 |
| 20260506121947 | 63 | 92 | 7.8 | 8.7 | 0.00 | 0.00 | 0.00 | 84 | 1012.4 |
| 20260506121444 | 62 | 46 | 3.5 | 5.2 | 0.00 | 0.00 | 0.00 | 85 | 1012.6 |
| 20260506120940 | 63 | 20 | 4.3 | 6.1 | 0.00 | 0.00 | 0.00 | 84 | 1012.5 |
| 20260506120438 | 62 | 32 | 4.3 | 6.1 | 0.00 | 0.00 | 0.00 | 85 | 1012.4 |
| 20260506115935 | 62 | 111 | 4.3 | 5.2 | 0.00 | 0.00 | 0.00 | 85 | 1012.4 |
| 20260506115433 | 62 | 236 | 3.5 | 4.3 | 0.00 | 0.00 | 0.00 | 86 | 1012.5 |
| 20260506114931 | 61 | 238 | 6.1 | 7.8 | 0.00 | 0.00 | 0.00 | 87 | 1012.5 |
| 20260506114428 | 61 | 69 | 5.2 | 7.0 | 0.00 | 0.00 | 0.00 | 87 | 1012.4 |
| 20260506113927 | 61 | 29 | 6.1 | 9.6 | 0.00 | 0.00 | 0.00 | 87 | 1012.2 |
| 20260506113424 | 61 | 83 | 6.1 | 7.8 | 0.00 | 0.00 | 0.00 | 87 | 1012.4 |
| 20260506112920 | 61 | 72 | 3.5 | 5.2 | 0.00 | 0.00 | 0.00 | 87 | 1012.4 |
| 20260506112419 | 61 | 96 | 3.5 | 5.2 | 0.00 | 0.00 | 0.00 | 87 | 1012.5 |
| 20260506111916 | 60 | 116 | 3.5 | 5.2 | 0.00 | 0.00 | 0.00 | 88 | 1012.4 |
| 20260506111414 | 60 | 18 | 6.1 | 7.8 | 0.00 | 0.00 | 0.00 | 89 | 1012.5 |
| 20260506110910 | 60 | 124 | 5.2 | 7.0 | 0.00 | 0.00 | 0.00 | 89 | 1012.7 |
| 20260506110408 | 60 | 341 | 1.7 | 2.6 | 0.00 | 0.00 | 0.00 | 90 | 1012.4 |
| 20260506105905 | 60 | 57 | 4.3 | 6.1 | 0.00 | 0.00 | 0.00 | 90 | 1012.4 |
| 20260506105401 | 59 | 87 | 4.3 | 5.2 | 0.00 | 0.00 | 0.00 | 90 | 1012.7 |
| 20260506104858 | 59 | 162 | 3.5 | 4.3 | 0.00 | 0.00 | 0.00 | 91 | 1012.7 |
| 20260506104356 | 59 | 112 | 5.2 | 6.1 | 0.00 | 0.00 | 0.00 | 91 | 1012.6 |
| 20260506103854 | 59 | 95 | 2.6 | 2.6 | 0.00 | 0.00 | 0.00 | 92 | 1012.2 |
| 20260506103351 | 59 | 138 | 2.6 | 2.6 | 0.00 | 0.00 | 0.00 | 92 | 1012.2 |
| 20260506102848 | 59 | 93 | 4.3 | 5.2 | 0.00 | 0.00 | 0.00 | 92 | 1012.2 |
| 20260506102346 | 59 | 126 | 5.2 | 6.1 | 0.00 | 0.00 | 0.00 | 92 | 1012.5 |
| 20260506101843 | 59 | 138 | 3.5 | 4.3 | 0.00 | 0.00 | 0.00 | 92 | 1012.4 |
| 20260506101339 | 59 | 225 | 1.7 | 1.7 | 0.00 | 0.00 | 0.00 | 92 | 1012.4 |
| 20260506100837 | 59 | 137 | 5.2 | 7.8 | 0.00 | 0.00 | 0.00 | 92 | 1012.2 |
| 20260506100335 | 59 | 116 | 3.5 | 5.2 | 0.00 | 0.00 | 0.00 | 92 | 1012.3 |
| 20260506095833 | 59 | 100 | 4.3 | 6.1 | 0.00 | 0.00 | 0.00 | 92 | 1012.2 |
| 20260506095330 | 59 | 56 | 3.5 | 5.2 | 0.00 | 0.00 | 0.00 | 92 | 1012.1 |
| 20260506094827 | 59 | 43 | 4.3 | 6.1 | 0.00 | 0.00 | 0.00 | 92 | 1012.0 |
| 20260506094326 | 59 | 115 | 5.2 | 7.8 | 0.00 | 0.00 | 0.00 | 92 | 1012.0 |
| 20260506093823 | 59 | 267 | 1.7 | 4.3 | 0.00 | 0.00 | 0.00 | 92 | 1012.2 |
| 20260506093320 | 59 | 41 | 3.5 | 5.2 | 0.00 | 0.00 | 0.00 | 92 | 1012.2 |
| 20260506092818 | 59 | 162 | 3.5 | 4.3 | 0.00 | 0.00 | 0.00 | 92 | 1012.3 |
| 20260506092316 | 59 | 108 | 4.3 | 5.2 | 0.00 | 0.00 | 0.00 | 92 | 1012.3 |
| 20260506091812 | 59 | 131 | 4.3 | 4.3 | 0.00 | 0.00 | 0.00 | 91 | 1012.3 |
| 20260506091310 | 59 | 135 | 3.5 | 5.2 | 0.00 | 0.00 | 0.00 | 91 | 1012.3 |
| 20260506090808 | 59 | 141 | 2.6 | 4.3 | 0.00 | 0.00 | 0.00 | 91 | 1012.4 |
| 20260506090304 | 59 | 51 | 4.3 | 5.2 | 0.00 | 0.00 | 0.00 | 91 | 1012.4 |
| 20260506085801 | 59 | 161 | 5.2 | 7.0 | 0.00 | 0.00 | 0.00 | 91 | 1012.4 |
| 20260506085257 | 59 | 147 | 6.1 | 7.0 | 0.00 | 0.00 | 0.00 | 91 | 1012.5 |
| 20260506084754 | 59 | 216 | 3.5 | 4.3 | 0.00 | 0.00 | 0.00 | 91 | 1012.6 |
| 20260506084250 | 59 | 164 | 3.5 | 4.3 | 0.00 | 0.00 | 0.00 | 91 | 1012.7 |
| 20260506083747 | 59 | 198 | 2.6 | 4.3 | 0.00 | 0.00 | 0.00 | 92 | 1012.6 |
| 20260506083245 | 59 | 65 | 4.3 | 6.1 | 0.00 | 0.00 | 0.00 | 91 | 1012.7 |
| 20260506082743 | 59 | 126 | 3.5 | 4.3 | 0.00 | 0.00 | 0.00 | 91 | 1012.8 |
| 20260506082237 | 59 | 202 | 2.6 | 2.6 | 0.00 | 0.00 | 0.00 | 91 | 1012.4 |
| 20260506081736 | 59 | 135 | 4.3 | 6.1 | 0.00 | 0.00 | 0.00 | 92 | 1012.5 |
| 20260506081233 | 59 | 123 | 2.6 | 2.6 | 0.00 | 0.00 | 0.00 | 91 | 1012.7 |
| 20260506080731 | 59 | 134 | 3.5 | 4.3 | 0.00 | 0.00 | 0.00 | 91 | 1012.4 |
| 20260506080227 | 59 | 141 | 2.6 | 4.3 | 0.00 | 0.00 | 0.00 | 91 | 1012.6 |
| 20260506073211 | 59 | 151 | 7.0 | 8.7 | 0.00 | 0.00 | 0.00 | 90 | 1012.8 |
| 20260506072708 | 59 | 136 | 3.5 | 5.2 | 0.00 | 0.00 | 0.00 | 90 | 1012.8 |
| 20260506072206 | 59 | 211 | 2.6 | 4.3 | 0.00 | 0.00 | 0.00 | 90 | 1012.8 |
| 20260506071703 | 59 | 160 | 3.5 | 4.3 | 0.00 | 0.00 | 0.00 | 90 | 1012.8 |
| 20260506071201 | 59 | 127 | 4.3 | 5.2 | 0.00 | 0.00 | 0.00 | 90 | 1012.9 |
| 20260506070657 | 59 | 234 | 3.5 | 5.2 | 0.00 | 0.00 | 0.00 | 90 | 1012.9 |
| 20260506070154 | 59 | 117 | 3.5 | 5.2 | 0.00 | 0.00 | 0.00 | 90 | 1012.7 |
| 20260506062131 | 59 | 265 | 4.3 | 6.1 | 0.00 | 0.00 | 0.00 | 88 | 1012.7 |
| 20260506061627 | 59 | 145 | 3.5 | 5.2 | 0.00 | 0.00 | 0.00 | 88 | 1012.8 |
| 20260506061125 | 59 | 126 | 4.3 | 5.2 | 0.00 | 0.00 | 0.00 | 88 | 1012.7 |
| 20260506060623 | 59 | 110 | 5.2 | 6.1 | 0.00 | 0.00 | 0.00 | 88 | 1013.1 |
| 20260506060120 | 60 | 188 | 4.3 | 6.1 | 0.00 | 0.00 | 0.00 | 87 | 1012.9 |
| 20260506051052 | 61 | 196 | 4.3 | 5.2 | 0.00 | 0.00 | 0.00 | 85 | 1013.2 |
| 20260506050550 | 61 | 73 | 4.3 | 5.2 | 0.00 | 0.00 | 0.00 | 85 | 1013.3 |
| 20260506045040 | 61 | 142 | 6.1 | 7.8 | 0.00 | 0.00 | 0.00 | 84 | 1013.4 |
| 20260506044538 | 61 | 60 | 4.3 | 7.8 | 0.00 | 0.00 | 0.00 | 84 | 1013.2 |
| 20260506044035 | 61 | 100 | 4.3 | 6.1 | 0.00 | 0.00 | 0.00 | 84 | 1013.3 |
| 20260506043532 | 61 | 63 | 3.5 | 5.2 | 0.00 | 0.00 | 0.00 | 84 | 1013.4 |
| 20260506043030 | 61 | 112 | 6.1 | 7.8 | 0.00 | 0.00 | 0.00 | 83 | 1013.3 |
| 20260506042529 | 61 | 122 | 4.3 | 6.1 | 0.00 | 0.00 | 0.00 | 84 | 1013.5 |
| 20260506042027 | 61 | 31 | 6.1 | 7.8 | 0.00 | 0.00 | 0.00 | 84 | 1013.4 |
| 20260506041525 | 61 | 144 | 4.3 | 7.0 | 0.00 | 0.00 | 0.00 | 84 | 1013.4 |
| 20260506041021 | 61 | 106 | 4.3 | 7.0 | 0.00 | 0.00 | 0.00 | 84 | 1013.3 |
| 20260506040519 | 61 | 124 | 4.3 | 7.8 | 0.00 | 0.00 | 0.00 | 84 | 1013.5 |
| 20260506040015 | 61 | 166 | 4.3 | 7.8 | 0.00 | 0.00 | 0.00 | 83 | 1013.2 |
| 20260506035512 | 61 | 135 | 2.6 | 5.2 | 0.00 | 0.00 | 0.00 | 83 | 1013.3 |
| 20260506035009 | 61 | 178 | 6.1 | 7.8 | 0.00 | 0.00 | 0.00 | 83 | 1013.3 |
| 20260506034507 | 61 | 114 | 5.2 | 7.0 | 0.00 | 0.00 | 0.00 | 83 | 1013.3 |
| 20260506034004 | 61 | 146 | 3.5 | 5.2 | 0.00 | 0.00 | 0.00 | 82 | 1013.3 |
| 20260506033501 | 61 | 118 | 5.2 | 7.8 | 0.00 | 0.00 | 0.00 | 82 | 1013.4 |
| 20260506032957 | 61 | 113 | 4.3 | 5.2 | 0.00 | 0.00 | 0.00 | 82 | 1013.4 |
| 20260506032455 | 61 | 179 | 3.5 | 5.2 | 0.00 | 0.00 | 0.00 | 83 | 1013.6 |
| 20260506031951 | 61 | 110 | 4.3 | 6.1 | 0.00 | 0.00 | 0.00 | 82 | 1013.7 |
| 20260506031449 | 61 | 72 | 4.3 | 6.1 | 0.00 | 0.00 | 0.00 | 82 | 1013.5 |
| 20260506030946 | 62 | 110 | 2.6 | 4.3 | 0.00 | 0.00 | 0.00 | 81 | 1013.2 |
| 20260506030444 | 62 | 136 | 6.1 | 9.6 | 0.00 | 0.00 | 0.00 | 81 | 1013.4 |
| 20260506025940 | 62 | 81 | 5.2 | 7.8 | 0.00 | 0.00 | 0.00 | 81 | 1013.4 |
| 20260506025437 | 62 | 192 | 4.3 | 7.0 | 0.00 | 0.00 | 0.00 | 81 | 1013.6 |
| 20260506024934 | 62 | 96 | 6.1 | 7.0 | 0.00 | 0.00 | 0.00 | 81 | 1013.3 |
| 20260506024431 | 62 | 44 | 6.1 | 9.6 | 0.00 | 0.00 | 0.00 | 80 | 1013.4 |
| 20260506023926 | 62 | 346 | 3.5 | 5.2 | 0.00 | 0.00 | 0.00 | 80 | 1013.2 |
| 20260506023424 | 62 | 141 | 6.1 | 7.8 | 0.00 | 0.00 | 0.00 | 80 | 1013.4 |
| 20260506022920 | 62 | 125 | 9.6 | 13.0 | 0.00 | 0.00 | 0.00 | 80 | 1013.4 |
| 20260506022418 | 62 | 100 | 7.0 | 11.3 | 0.00 | 0.00 | 0.00 | 79 | 1013.5 |
| 20260506021916 | 62 | 167 | 6.1 | 9.6 | 0.00 | 0.00 | 0.00 | 79 | 1013.6 |
| 20260506021413 | 62 | 162 | 7.8 | 7.8 | 0.00 | 0.00 | 0.00 | 79 | 1013.5 |
| 20260506020909 | 62 | 120 | 8.7 | 11.3 | 0.00 | 0.00 | 0.00 | 79 | 1013.4 |
| 20260506020408 | 62 | 180 | 7.8 | 11.3 | 0.00 | 0.00 | 0.00 | 79 | 1013.7 |
| 20260506015904 | 62 | 132 | 4.3 | 6.1 | 0.00 | 0.00 | 0.00 | 79 | 1013.5 |
| 20260506015402 | 62 | 132 | 7.8 | 9.6 | 0.00 | 0.00 | 0.00 | 79 | 1013.3 |
| 20260506014859 | 62 | 223 | 4.3 | 6.1 | 0.00 | 0.00 | 0.00 | 80 | 1013.7 |
| 20260506014356 | 62 | 109 | 7.0 | 8.7 | 0.00 | 0.00 | 0.00 | 80 | 1013.4 |
| 20260506013852 | 62 | 98 | 3.5 | 4.3 | 0.00 | 0.00 | 0.00 | 80 | 1013.4 |
| 20260506013350 | 62 | 96 | 5.2 | 7.8 | 0.00 | 0.00 | 0.00 | 80 | 1013.1 |
| 20260506012846 | 62 | 57 | 5.2 | 6.1 | 0.00 | 0.00 | 0.00 | 80 | 1013.6 |
| 20260506012343 | 62 | 110 | 6.1 | 7.8 | 0.00 | 0.00 | 0.00 | 80 | 1013.3 |
| 20260506011840 | 62 | 124 | 6.1 | 9.6 | 0.00 | 0.00 | 0.00 | 80 | 1013.3 |
| 20260506011337 | 62 | 142 | 5.2 | 7.8 | 0.00 | 0.00 | 0.00 | 80 | 1013.4 |
| 20260506010834 | 62 | 122 | 2.6 | 4.3 | 0.00 | 0.00 | 0.00 | 80 | 1013.1 |
| 20260506010332 | 62 | 152 | 5.2 | 7.0 | 0.00 | 0.00 | 0.00 | 81 | 1013.0 |
| 20260506005829 | 62 | 96 | 5.2 | 7.0 | 0.00 | 0.00 | 0.00 | 80 | 1013.1 |
| 20260506005326 | 62 | 122 | 5.2 | 8.7 | 0.00 | 0.00 | 0.00 | 80 | 1012.8 |
| 20260506004822 | 62 | 112 | 7.0 | 7.8 | 0.00 | 0.00 | 0.00 | 80 | 1012.7 |
| 20260506004319 | 62 | 58 | 7.0 | 13.0 | 0.00 | 0.00 | 0.00 | 79 | 1012.7 |
| 20260506003815 | 62 | 135 | 6.1 | 7.0 | 0.00 | 0.00 | 0.00 | 79 | 1012.8 |
| 20260506003312 | 62 | 103 | 6.1 | 8.7 | 0.00 | 0.00 | 0.00 | 79 | 1013.0 |
| 20260506002808 | 63 | 143 | 3.5 | 5.2 | 0.00 | 0.00 | 0.00 | 79 | 1013.0 |
| 20260506002306 | 63 | 150 | 4.3 | 6.1 | 0.00 | 0.00 | 0.00 | 78 | 1013.1 |
| 20260506001800 | 64 | 158 | 6.1 | 7.8 | 0.00 | 0.00 | 0.00 | 77 | 1012.8 |
| 20260506001258 | 64 | 117 | 7.0 | 7.8 | 0.00 | 0.00 | 0.00 | 76 | 1012.7 |
| 20260506000755 | 64 | 103 | 6.1 | 7.0 | 0.00 | 0.00 | 0.00 | 76 | 1012.6 |
| 20260506000254 | 64 | 122 | 7.0 | 8.7 | 0.00 | 0.00 | 0.00 | 75 | 1012.6 |
| 20260505235749 | 64 | 108 | 7.8 | 9.6 | 0.00 | 0.00 | 0.00 | 74 | 1012.6 |
| 20260505235247 | 65 | 90 | 6.1 | 8.7 | 0.00 | 0.00 | 0.00 | 73 | 1012.7 |
| 20260505234743 | 65 | 110 | 6.1 | 7.8 | 0.00 | 0.00 | 0.00 | 73 | 1012.5 |
| 20260505234241 | 65 | 120 | 6.1 | 7.8 | 0.00 | 0.00 | 0.00 | 73 | 1012.7 |
| 20260505233737 | 65 | 118 | 6.1 | 7.8 | 0.00 | 0.00 | 0.00 | 73 | 1012.6 |
| 20260505233236 | 65 | 66 | 7.8 | 11.3 | 0.00 | 0.00 | 0.00 | 72 | 1012.5 |
| 20260505232732 | 65 | 136 | 7.8 | 9.6 | 0.00 | 0.00 | 0.00 | 70 | 1012.4 |
| 20260505232230 | 66 | 198 | 7.8 | 13.0 | 0.00 | 0.00 | 0.00 | 70 | 1012.5 |
| 20260505231726 | 66 | 98 | 5.2 | 8.7 | 0.00 | 0.00 | 0.00 | 70 | 1012.4 |
| 20260505231226 | 66 | 90 | 5.2 | 7.0 | 0.00 | 0.00 | 0.00 | 69 | 1012.4 |
| 20260505230723 | 66 | 94 | 6.1 | 7.8 | 0.00 | 0.00 | 0.00 | 68 | 1012.2 |
| 20260505230219 | 66 | 87 | 13.0 | 17.4 | 0.00 | 0.00 | 0.00 | 67 | 1012.3 |
| 20260505225716 | 66 | 103 | 4.3 | 6.1 | 0.00 | 0.00 | 0.00 | 68 | 1012.1 |
| 20260505225213 | 66 | 106 | 5.2 | 7.0 | 0.00 | 0.00 | 0.00 | 67 | 1012.2 |
| 20260505224708 | 66 | 128 | 5.2 | 7.0 | 0.00 | 0.00 | 0.00 | 67 | 1012.2 |
| 20260505224206 | 67 | 91 | 7.0 | 9.6 | 0.00 | 0.00 | 0.00 | 67 | 1012.0 |
| 20260505223704 | 67 | 111 | 9.6 | 14.8 | 0.00 | 0.00 | 0.00 | 66 | 1011.9 |
| 20260505223200 | 68 | 140 | 7.8 | 9.6 | 0.00 | 0.00 | 0.00 | 65 | 1012.1 |
| 20260505222656 | 68 | 119 | 5.2 | 6.1 | 0.00 | 0.00 | 0.00 | 66 | 1011.8 |
| 20260505222152 | 68 | 136 | 4.3 | 6.1 | 0.00 | 0.00 | 0.00 | 65 | 1012.0 |
| 20260505221650 | 68 | 49 | 7.8 | 8.7 | 0.00 | 0.00 | 0.00 | 65 | 1012.2 |
| 20260505221146 | 68 | 105 | 7.8 | 9.6 | 0.00 | 0.00 | 0.00 | 66 | 1012.1 |
| 20260505220643 | 68 | 102 | 7.8 | 11.3 | 0.00 | 0.00 | 0.00 | 65 | 1012.2 |
| 20260505220141 | 68 | 104 | 4.3 | 6.1 | 0.00 | 0.00 | 0.00 | 66 | 1012.0 |
| 20260505215638 | 68 | 129 | 5.2 | 7.0 | 0.00 | 0.00 | 0.00 | 66 | 1011.8 |
| 20260505215136 | 68 | 126 | 8.7 | 11.3 | 0.00 | 0.00 | 0.00 | 66 | 1011.9 |
| 20260505214634 | 68 | 127 | 7.0 | 7.8 | 0.00 | 0.00 | 0.00 | 66 | 1012.3 |
| 20260505214131 | 67 | 80 | 4.3 | 6.1 | 0.00 | 0.00 | 0.00 | 66 | 1011.8 |
| 20260505213629 | 67 | 70 | 7.0 | 9.6 | 0.00 | 0.00 | 0.00 | 66 | 1011.8 |
| 20260505213125 | 67 | 117 | 6.1 | 7.0 | 0.00 | 0.00 | 0.00 | 67 | 1011.6 |
| 20260505212620 | 68 | 158 | 6.1 | 8.7 | 0.00 | 0.00 | 0.00 | 66 | 1011.7 |
| 20260505212119 | 68 | 65 | 6.1 | 9.6 | 0.00 | 0.00 | 0.00 | 65 | 1011.6 |